WAT1417 CYHZ-CYFC

Flight info

Callsign WAT1417
Flight time N/A
Altitude 8000
Route CYHZ4/23 VIBMA
Aircraft K100/L-SBDGRY/S

Departure

Time 2026-05-04 22:28
Airport Halifax / Stanfield International Airport (CYHZ)

Arrival

Time N/A
Airport Fredericton International Airport (CYFC)
Time Latitude Longitude Altitude Speed Heading
2026-05-04 22:27 44.73435 -63.58054 7542 ft 138 kts 217°
2026-05-04 22:28 44.72519 -63.58506 7568 ft 141 kts 217°
2026-05-04 22:28 44.71592 -63.58979 7601 ft 143 kts 217°
2026-05-04 22:28 44.70679 -63.59495 7618 ft 132 kts 231°
2026-05-04 22:28 44.70330 -63.60471 7857 ft 107 kts 258°
2026-05-04 22:29 44.70178 -63.61483 7980 ft 106 kts 268°
2026-05-04 22:29 44.70228 -63.62527 8027 ft 110 kts 278°
2026-05-04 22:29 44.70495 -63.63571 8038 ft 117 kts 290°
2026-05-04 22:29 44.70984 -63.64532 8039 ft 123 kts 298°
2026-05-04 22:30 44.71511 -63.65487 8037 ft 124 kts 296°
2026-05-04 22:30 44.72028 -63.66465 8037 ft 125 kts 296°
2026-05-04 22:30 44.72545 -63.67452 8035 ft 125 kts 296°
2026-05-04 22:30 44.73057 -63.68438 8032 ft 126 kts 296°
2026-05-04 22:31 44.73579 -63.69442 8029 ft 128 kts 296°
2026-05-04 22:31 44.74105 -63.70464 8026 ft 129 kts 296°
2026-05-04 22:31 44.74631 -63.71482 8022 ft 128 kts 296°
2026-05-04 22:31 44.75154 -63.72498 8021 ft 129 kts 295°
2026-05-04 22:32 44.75687 -63.73522 8018 ft 130 kts 296°
2026-05-04 22:32 44.76223 -63.74554 8020 ft 131 kts 295°
2026-05-04 22:32 44.76762 -63.75596 7985 ft 133 kts 295°
2026-05-04 22:32 44.77305 -63.76649 7992 ft 133 kts 295°
2026-05-04 22:33 44.77850 -63.77703 7989 ft 135 kts 295°
2026-05-04 22:33 44.78405 -63.78778 7990 ft 136 kts 295°
2026-05-04 22:33 44.78960 -63.79864 7991 ft 138 kts 295°
2026-05-04 22:33 44.79524 -63.80956 7991 ft 138 kts 295°
2026-05-04 22:34 44.80084 -63.82042 7992 ft 136 kts 295°
2026-05-04 22:34 44.80639 -63.83120 7993 ft 136 kts 296°
2026-05-04 22:34 44.81198 -63.84198 7995 ft 136 kts 295°
2026-05-04 22:34 44.81754 -63.85277 7990 ft 136 kts 295°
2026-05-04 22:35 44.82306 -63.86360 7994 ft 137 kts 295°
2026-05-04 22:35 44.82863 -63.87448 7992 ft 138 kts 296°
2026-05-04 22:35 44.83422 -63.88533 7991 ft 137 kts 296°
2026-05-04 22:35 44.83985 -63.89618 7987 ft 137 kts 296°
2026-05-04 22:36 44.84547 -63.90711 7985 ft 138 kts 295°
2026-05-04 22:36 44.85109 -63.91805 7984 ft 137 kts 295°
2026-05-04 22:36 44.85664 -63.92888 7982 ft 136 kts 295°
2026-05-04 22:36 44.86220 -63.93969 7978 ft 136 kts 295°
2026-05-04 22:37 44.86776 -63.95054 7989 ft 137 kts 295°
2026-05-04 22:37 44.87334 -63.96144 7988 ft 137 kts 295°
2026-05-04 22:37 44.87892 -63.97232 7985 ft 136 kts 295°
2026-05-04 22:37 44.88448 -63.98317 7988 ft 137 kts 295°
2026-05-04 22:38 44.89005 -63.99401 7986 ft 137 kts 295°
2026-05-04 22:38 44.89560 -64.00493 7992 ft 138 kts 294°
2026-05-04 22:38 44.90125 -64.01594 7993 ft 139 kts 295°
2026-05-04 22:38 44.90694 -64.02699 7994 ft 139 kts 295°
2026-05-04 22:39 44.91263 -64.03810 7994 ft 140 kts 295°
2026-05-04 22:39 44.91835 -64.04927 7993 ft 141 kts 295°
2026-05-04 22:39 44.92406 -64.06047 7995 ft 141 kts 295°
2026-05-04 22:39 44.92976 -64.07164 7993 ft 140 kts 295°
2026-05-04 22:40 44.93546 -64.08277 7992 ft 139 kts 294°
2026-05-04 22:40 44.94104 -64.09376 7992 ft 140 kts 294°
2026-05-04 22:40 44.94667 -64.10487 7990 ft 139 kts 295°
2026-05-04 22:40 44.95231 -64.11593 7991 ft 139 kts 295°
2026-05-04 22:41 44.95797 -64.12704 7989 ft 140 kts 295°
2026-05-04 22:41 44.96365 -64.13813 7992 ft 139 kts 295°
2026-05-04 22:41 44.96932 -64.14927 7992 ft 140 kts 295°
2026-05-04 22:41 44.97499 -64.16042 7994 ft 140 kts 295°
2026-05-04 22:42 44.98068 -64.17158 7990 ft 140 kts 295°
2026-05-04 22:42 44.98636 -64.18273 7992 ft 140 kts 295°
2026-05-04 22:42 44.99204 -64.19393 7994 ft 140 kts 295°
2026-05-04 22:42 44.99395 -64.19768 7990 ft 140 kts 295°
2026-05-04 22:43 45.00856 -64.22639 7990 ft 138 kts 295°
2026-05-04 22:43 45.01416 -64.23741 7992 ft 138 kts 295°
2026-05-04 22:43 45.01978 -64.24851 7995 ft 140 kts 295°
2026-05-04 22:44 45.02547 -64.25972 8000 ft 140 kts 295°
2026-05-04 22:44 45.03118 -64.27092 7995 ft 141 kts 295°
2026-05-04 22:44 45.03689 -64.28213 7994 ft 140 kts 295°
2026-05-04 22:44 45.04257 -64.29334 7998 ft 140 kts 295°
2026-05-04 22:45 45.04826 -64.30457 7993 ft 140 kts 295°
2026-05-04 22:45 45.05963 -64.32707 7988 ft 140 kts 295°
2026-05-04 22:45 45.06535 -64.33827 7991 ft 141 kts 295°
2026-05-04 22:46 45.07105 -64.34955 7995 ft 141 kts 294°
2026-05-04 22:46 45.07672 -64.36080 7995 ft 140 kts 295°
2026-05-04 22:46 45.08232 -64.37190 7995 ft 141 kts 295°
2026-05-04 22:46 45.08802 -64.38317 7997 ft 141 kts 295°
2026-05-04 22:47 45.09375 -64.39448 7997 ft 142 kts 295°
2026-05-04 22:47 45.09948 -64.40581 7996 ft 141 kts 295°
2026-05-04 22:47 45.10520 -64.41713 7993 ft 141 kts 295°
2026-05-04 22:47 45.11089 -64.42842 7992 ft 141 kts 295°
2026-05-04 22:48 45.11658 -64.43970 7992 ft 141 kts 295°
2026-05-04 22:48 45.12227 -64.45096 7992 ft 140 kts 295°
2026-05-04 22:48 45.12793 -64.46221 7994 ft 140 kts 295°
2026-05-04 22:48 45.13360 -64.47346 7995 ft 141 kts 295°
2026-05-04 22:49 45.13929 -64.48476 7995 ft 141 kts 295°
2026-05-04 22:49 45.14500 -64.49610 7994 ft 141 kts 295°
2026-05-04 22:49 45.15071 -64.50743 7994 ft 141 kts 295°
2026-05-04 22:49 45.15640 -64.51875 7994 ft 141 kts 295°
2026-05-04 22:50 45.16208 -64.53005 7995 ft 141 kts 294°
2026-05-04 22:50 45.16776 -64.54136 7999 ft 141 kts 294°
2026-05-04 22:50 45.17346 -64.55270 7997 ft 141 kts 294°
2026-05-04 22:50 45.17915 -64.56403 7999 ft 141 kts 294°
2026-05-04 22:51 45.18486 -64.57541 7986 ft 142 kts 295°
2026-05-04 22:51 45.19059 -64.58683 7995 ft 142 kts 295°
2026-05-04 22:51 45.19633 -64.59823 7993 ft 142 kts 295°
2026-05-04 22:51 45.20204 -64.60962 7992 ft 142 kts 295°
2026-05-04 22:52 45.20775 -64.62104 7995 ft 142 kts 295°
2026-05-04 22:52 45.21344 -64.63243 7998 ft 142 kts 295°
2026-05-04 22:52 45.21919 -64.64378 7992 ft 142 kts 295°
2026-05-04 22:52 45.22489 -64.65516 7985 ft 141 kts 294°
2026-05-04 22:53 45.23051 -64.66658 7992 ft 141 kts 295°
2026-05-04 22:53 45.23618 -64.67795 7993 ft 141 kts 295°
2026-05-04 22:53 45.24188 -64.68933 7992 ft 141 kts 295°
2026-05-04 22:53 45.24757 -64.70069 7992 ft 141 kts 295°
2026-05-04 22:54 45.25326 -64.71205 8001 ft 141 kts 295°
2026-05-04 22:54 45.25898 -64.72340 7999 ft 141 kts 295°
2026-05-04 22:54 45.26462 -64.73481 8000 ft 141 kts 295°
2026-05-04 22:54 45.27031 -64.74621 7995 ft 141 kts 295°
2026-05-04 22:55 45.27598 -64.75760 7983 ft 141 kts 295°
2026-05-04 22:55 45.28166 -64.76896 7990 ft 141 kts 295°
2026-05-04 22:55 45.28731 -64.78029 7991 ft 140 kts 295°
2026-05-04 22:55 45.29295 -64.79162 7982 ft 141 kts 295°
2026-05-04 22:56 45.29861 -64.80297 7992 ft 141 kts 295°
2026-05-04 22:56 45.30424 -64.81429 7992 ft 140 kts 295°
2026-05-04 22:56 45.30987 -64.82559 7992 ft 140 kts 295°
2026-05-04 22:56 45.31550 -64.83691 7995 ft 141 kts 295°
2026-05-04 22:57 45.32113 -64.84824 7996 ft 140 kts 295°
2026-05-04 22:57 45.32677 -64.85957 7996 ft 140 kts 295°
2026-05-04 22:57 45.33241 -64.87087 7998 ft 140 kts 295°
2026-05-04 22:57 45.33797 -64.88218 7998 ft 140 kts 295°
2026-05-04 22:58 45.34357 -64.89348 7994 ft 140 kts 296°
2026-05-04 22:58 45.34920 -64.90479 7984 ft 141 kts 296°
2026-05-04 22:58 45.35484 -64.91614 7993 ft 141 kts 296°
2026-05-04 22:58 45.36049 -64.92755 7979 ft 142 kts 296°
2026-05-04 22:59 45.36619 -64.93904 7992 ft 142 kts 296°
2026-05-04 22:59 45.37188 -64.95050 7993 ft 142 kts 296°
2026-05-04 22:59 45.37755 -64.96194 7991 ft 141 kts 296°
2026-05-04 22:59 45.38320 -64.97335 7989 ft 140 kts 296°
2026-05-04 23:00 45.38881 -64.98469 7987 ft 140 kts 296°
2026-05-04 23:00 45.39439 -64.99602 7986 ft 140 kts 295°
2026-05-04 23:00 45.39998 -65.00736 7985 ft 140 kts 296°
2026-05-04 23:00 45.40561 -65.01875 7989 ft 141 kts 296°
2026-05-04 23:01 45.41127 -65.03020 7988 ft 142 kts 296°
2026-05-04 23:01 45.41696 -65.04170 7986 ft 142 kts 296°
2026-05-04 23:01 45.42263 -65.05317 7985 ft 142 kts 296°
2026-05-04 23:01 45.42828 -65.06462 7994 ft 141 kts 296°
2026-05-04 23:02 45.43394 -65.07612 7977 ft 142 kts 296°
2026-05-04 23:02 45.43961 -65.08761 7979 ft 142 kts 296°
2026-05-04 23:02 45.44528 -65.09911 7979 ft 142 kts 295°
2026-05-04 23:02 45.45086 -65.11045 7980 ft 142 kts 296°
2026-05-04 23:03 45.45660 -65.12209 7986 ft 142 kts 296°
2026-05-04 23:03 45.46225 -65.13357 7986 ft 142 kts 296°
2026-05-04 23:03 45.46790 -65.14505 7982 ft 141 kts 296°
2026-05-04 23:03 45.47354 -65.15653 7985 ft 142 kts 296°
2026-05-04 23:04 45.47913 -65.16787 7981 ft 141 kts 296°
2026-05-04 23:04 45.48476 -65.17934 7984 ft 141 kts 296°
2026-05-04 23:04 45.49039 -65.19079 7984 ft 141 kts 296°
2026-05-04 23:04 45.49602 -65.20224 7984 ft 141 kts 296°
2026-05-04 23:05 45.50163 -65.21364 7985 ft 141 kts 297°
2026-05-04 23:05 45.50735 -65.22492 7980 ft 140 kts 295°
2026-05-04 23:05 45.51285 -65.23638 7979 ft 141 kts 296°
2026-05-04 23:05 45.51844 -65.24776 7976 ft 140 kts 295°
2026-05-04 23:06 45.52397 -65.25923 7981 ft 141 kts 295°